Tracking 29892 objects as of 21-Nov-2024
HD Live streaming from Space Station
objects crossing your sky now

COSMOS 886 DEB

Track COSMOS 886 DEB now!
10-day predictions


NORAD ID: 9723
Int'l Code: 1976-126U
Perigee: 720.5 km
Apogee: 1,793.1 km
Inclination: 65.8 °
Period: 110.5 minutes
Semi major axis: 7627 km
RCS: 0.0989 m2 (small)
Launch date: December 27, 1976
Source: Commonwealth of Independent States (former USSR) (CIS)
Launch site: TYURATAM MISSILE AND SPACE COMPLEX (TTMTR)

Note: This is SATELLITE DEBRIS
Your satellite tracking list
Your tracking list is empty




NASA's NSSDC Master Catalog

Two Line Element Set (TLE):
1  9723U 76126U   24325.77727846  .00008450  00000-0  81883-2 0  9994
2  9723  65.7566  65.3390 0703121 168.9854 192.7524 13.03174225224241
Source of the keplerian elements: AFSPC